GW1238 Weather Reports


time (UTC)temp
C
wind
direction
speed
KPH
gust
KPH
rain 1hr
cm
rain 24hr
cm
rain mn
cm
humidity
%
barometer
mb
20260903184023 36 125 1.6 1.6 0.00 0.00 0.00 51 1019.3
20260903183522 38 154 0.0 0.0 0.00 0.00 0.00 50 1019.5
20260903183017 37 157 0.0 0.0 0.00 0.00 0.00 52 1019.5
20260903182516 37 158 0.0 0.0 0.00 0.00 0.00 54 1019.6
20260903182013 35 142 0.0 1.6 0.00 0.00 0.00 55 1019.8
20260903181511 34 146 0.0 1.6 0.00 0.00 0.00 58 1019.8
20260903181011 34 141 0.0 0.0 0.00 0.00 0.00 60 1019.8
20260903180507 33 131 1.6 3.2 0.00 0.00 0.00 60 1019.8
20260903180005 33 148 1.6 1.6 0.00 0.00 0.00 57 1020.1
20260903175505 33 125 1.6 1.6 0.00 0.00 0.00 62 1020.0
20260903175004 33 122 1.6 3.2 0.00 0.00 0.00 65 1020.2
20260903174459 32 109 3.2 3.2 0.00 0.00 0.00 67 1020.0
20260903173954 32 107 3.2 4.8 0.00 0.00 0.00 68 1020.1
20260903173449 32 115 1.6 3.2 0.00 0.00 0.00 68 1020.2
20260903172945 32 119 1.6 3.2 0.00 0.00 0.00 67 1020.0
20260903172440 32 117 1.6 1.6 0.00 0.00 0.00 67 1020.1
20260903171935 32 116 1.6 1.6 0.00 0.00 0.00 70 1020.4
20260903171430 32 119 1.6 3.2 0.00 0.00 0.00 68 1020.5
20260903170930 32 101 3.2 3.2 0.00 0.00 0.00 70 1020.5
20260903170425 32 110 3.2 3.2 0.00 0.00 0.00 68 1020.6
20260903165924 32 113 1.6 3.2 0.00 0.00 0.00 72 1020.7
20260903165419 31 104 3.2 4.8 0.00 0.00 0.00 71 1021.0
20260903164918 31 103 3.2 4.8 0.00 0.00 0.00 72 1020.9
20260903164414 31 105 3.2 4.8 0.00 0.00 0.00 71 1020.9
20260903163913 31 115 3.2 3.2 0.00 0.00 0.00 70 1021.0
20260903163410 31 102 3.2 4.8 0.00 0.00 0.00 75 1021.1
20260903162906 31 107 3.2 3.2 0.00 0.00 0.00 72 1020.8
20260903162402 31 99 3.2 4.8 0.00 0.00 0.00 73 1021.1
20260903161857 31 115 3.2 4.8 0.00 0.00 0.00 74 1021.0
20260903161352 31 116 3.2 3.2 0.00 0.00 0.00 76 1021.2
20260903160848 30 116 3.2 4.8 0.00 0.00 0.00 73 1021.1
20260903160347 30 130 3.2 3.2 0.00 0.00 0.00 76 1020.9
20260903155845 30 125 3.2 3.2 0.00 0.00 0.00 74 1021.2
20260903155341 30 115 3.2 4.8 0.00 0.00 0.00 75 1021.1
20260903154836 30 123 3.2 3.2 0.00 0.00 0.00 75 1021.1
20260903154332 30 124 3.2 3.2 0.00 0.00 0.00 77 1021.1
20260903153827 30 132 3.2 4.8 0.00 0.00 0.00 76 1021.2
20260903153323 30 123 3.2 3.2 0.00 0.00 0.00 74 1021.2
20260903152819 30 121 1.6 3.2 0.00 0.00 0.00 74 1021.4
20260903152315 30 116 1.6 3.2 0.00 0.00 0.00 77 1021.2
20260903151810 30 124 0.0 1.6 0.00 0.00 0.00 77 1021.4
20260903151306 30 117 1.6 3.2 0.00 0.00 0.00 79 1021.1
20260903150805 29 113 3.2 3.2 0.00 0.00 0.00 78 1021.2
20260903150259 29 115 3.2 3.2 0.00 0.00 0.00 78 1021.2
20260903145755 29 107 1.6 3.2 0.00 0.00 0.00 79 1021.2
20260903145250 29 112 1.6 3.2 0.00 0.00 0.00 79 1021.3
20260903144748 29 114 3.2 3.2 0.00 0.00 0.00 80 1021.5
20260903144244 28 113 3.2 4.8 0.00 0.00 0.00 80 1021.4
20260903143740 28 110 3.2 3.2 0.00 0.00 0.00 80 1021.4
20260903143236 28 106 3.2 4.8 0.00 0.00 0.00 81 1021.4
20260903142732 28 112 3.2 4.8 0.00 0.00 0.00 82 1021.3
20260903142228 28 106 3.2 4.8 0.00 0.00 0.00 82 1021.4
20260903141723 28 104 3.2 4.8 0.00 0.00 0.00 82 1021.5
20260903141219 28 115 3.2 4.8 0.00 0.00 0.00 82 1021.4
20260903140714 28 98 4.8 4.8 0.00 0.00 0.00 82 1021.5
20260903140214 28 91 6.4 6.4 0.00 0.00 0.00 84 1021.7
20260903135710 28 107 4.8 6.4 0.00 0.00 0.00 87 1021.4
20260903135206 27 99 3.2 6.4 0.00 0.00 0.00 84 1021.2
20260903134704 27 104 4.8 6.4 0.00 0.00 0.00 86 1021.4
20260903134200 27 100 4.8 6.4 0.00 0.00 0.00 86 1021.7
20260903133658 27 107 4.8 6.4 0.00 0.00 0.00 88 1021.4
20260903133154 27 100 4.8 6.4 0.00 0.00 0.00 88 1021.5
20260903132654 27 109 4.8 4.8 0.00 0.00 0.00 85 1021.3
20260903132149 27 107 4.8 6.4 0.00 0.00 0.00 86 1021.6
20260903131644 27 105 3.2 6.4 0.00 0.00 0.00 86 1021.6
20260903131143 27 119 0.0 4.8 0.00 0.00 0.00 86 1021.5
20260903130638 27 94 1.6 6.4 0.00 0.00 0.00 85 1021.5
20260903130137 27 56 1.6 4.8 0.00 0.00 0.00 86 1021.5
20260903125635 27 93 3.2 4.8 0.00 0.00 0.00 86 1021.3
20260903125132 27 101 3.2 4.8 0.00 0.00 0.00 87 1021.4
20260903124631 27 86 3.2 4.8 0.00 0.00 0.00 87 1021.5
20260903124125 26 53 0.0 0.0 0.00 0.00 0.00 88 1021.6
20260903123626 26 76 0.0 1.6 0.00 0.00 0.00 89 1021.4
20260903123125 25 343 1.6 3.2 0.00 0.00 0.00 90 1021.6
20260903122624 25 345 1.6 3.2 0.00 0.00 0.00 92 1021.7
20260903122118 24 343 1.6 3.2 0.00 0.00 0.00 94 1021.6
20260903121617 24 0 1.6 3.2 0.00 0.00 0.00 94 1021.6
20260903121113 24 338 3.2 4.8 0.00 0.00 0.00 94 1021.5
20260903120612 23 332 1.6 3.2 0.00 0.00 0.00 95 1021.3
20260903120107 23 330 1.6 3.2 0.00 0.00 0.00 95 1021.3
20260903115605 23 338 1.6 3.2 0.00 0.00 0.00 96 1021.2
20260903115100 23 324 3.2 4.8 0.00 0.00 0.00 96 1021.3
20260903114555 23 335 3.2 3.2 0.00 0.00 0.00 96 1020.9
20260903114051 23 340 3.2 3.2 0.00 0.00 0.00 96 1021.1
20260903113547 23 341 3.2 3.2 0.00 0.00 0.00 96 1021.0
20260903113043 23 332 3.2 3.2 0.00 0.00 0.00 96 1020.8
20260903112538 23 343 1.6 4.8 0.00 0.00 0.00 96 1021.1
20260903112033 23 336 3.2 3.2 0.00 0.00 0.00 96 1020.8
20260903111532 23 331 3.2 3.2 0.00 0.00 0.00 96 1020.7
20260903111028 23 335 3.2 3.2 0.00 0.00 0.00 96 1020.8
20260903110524 23 348 3.2 3.2 0.00 0.00 0.00 96 1020.7
20260903110024 23 338 3.2 3.2 0.00 0.00 0.00 96 1020.6
20260903105519 23 324 3.2 3.2 0.00 0.00 0.00 96 1020.6
20260903105014 23 11 1.6 3.2 0.00 0.00 0.00 96 1020.6
20260903104513 23 348 3.2 3.2 0.00 0.00 0.00 96 1020.5
20260903104009 23 338 3.2 3.2 0.00 0.00 0.00 96 1020.6
20260903103505 23 339 3.2 3.2 0.00 0.00 0.00 96 1020.6
20260903103001 23 330 3.2 3.2 0.00 0.00 0.00 96 1020.6
20260903102456 23 334 3.2 3.2 0.00 0.00 0.00 96 1020.6
20260903101954 23 338 3.2 3.2 0.00 0.00 0.00 96 1020.5
20260903101449 23 342 3.2 3.2 0.00 0.00 0.00 96 1020.4
20260903100945 23 335 3.2 3.2 0.00 0.00 0.00 96 1020.3
20260903100440 23 329 3.2 3.2 0.00 0.00 0.00 96 1020.6
20260903095937 23 332 1.6 3.2 0.00 0.00 0.00 97 1020.5
20260903095432 23 342 3.2 3.2 0.00 0.00 0.00 97 1020.5
20260903094927 23 332 1.6 3.2 0.00 0.00 0.00 96 1020.3
20260903094426 23 328 1.6 3.2 0.00 0.00 0.00 96 1020.4
20260903093924 23 335 3.2 3.2 0.00 0.00 0.00 96 1020.6
20260903093424 23 336 3.2 4.8 0.00 0.00 0.00 96 1020.6
20260903092919 23 343 1.6 3.2 0.00 0.00 0.00 95 1020.3
20260903092414 23 336 3.2 3.2 0.00 0.00 0.00 95 1020.5
20260903091913 23 337 3.2 3.2 0.00 0.00 0.00 95 1020.5
20260903091411 23 338 3.2 3.2 0.00 0.00 0.00 94 1020.3
20260903090912 23 341 3.2 3.2 0.00 0.00 0.00 94 1020.5
20260903090407 23 328 3.2 3.2 0.00 0.00 0.00 94 1020.2
20260903085906 23 331 3.2 3.2 0.00 0.00 0.00 94 1020.4
20260903085404 23 332 3.2 3.2 0.00 0.00 0.00 94 1020.3
20260903084904 23 341 3.2 3.2 0.00 0.00 0.00 94 1020.3
20260903084403 24 347 1.6 3.2 0.00 0.00 0.00 94 1020.3
20260903083858 23 334 3.2 3.2 0.00 0.00 0.00 94 1020.2
20260903083354 23 329 3.2 4.8 0.00 0.00 0.00 93 1020.4
20260903082853 23 337 3.2 3.2 0.00 0.00 0.00 93 1020.4
20260903082348 23 342 3.2 3.2 0.00 0.00 0.00 93 1020.5
20260903081843 23 333 3.2 4.8 0.00 0.00 0.00 93 1020.3
20260903081338 24 330 3.2 3.2 0.00 0.00 0.00 93 1020.2
20260903080835 24 337 3.2 4.8 0.00 0.00 0.00 93 1020.1
20260903080332 24 330 3.2 3.2 0.00 0.00 0.00 93 1020.1
20260903075831 24 335 3.2 3.2 0.00 0.00 0.00 93 1020.2
20260903075326 24 336 3.2 3.2 0.00 0.00 0.00 93 1020.4
20260903074821 24 338 3.2 3.2 0.00 0.00 0.00 92 1020.2
20260903074321 24 334 3.2 3.2 0.00 0.00 0.00 93 1020.2
20260903073817 24 324 3.2 3.2 0.00 0.00 0.00 92 1020.1
20260903073312 24 347 3.2 3.2 0.00 0.00 0.00 92 1019.9
20260903072808 24 340 3.2 3.2 0.00 0.00 0.00 92 1020.2
20260903072306 24 335 3.2 3.2 0.00 0.00 0.00 92 1020.3
20260903071801 24 337 3.2 3.2 0.00 0.00 0.00 92 1020.1
20260903071256 24 346 3.2 3.2 0.00 0.00 0.00 92 1020.1
20260903070755 24 329 3.2 3.2 0.00 0.00 0.00 91 1020.1
20260903070251 24 343 3.2 4.8 0.00 0.00 0.00 91 1020.0
20260903065746 24 337 3.2 3.2 0.00 0.00 0.00 91 1020.0
20260903065246 24 341 3.2 3.2 0.00 0.00 0.00 91 1020.1
20260903064744 24 334 3.2 3.2 0.00 0.00 0.00 91 1019.9
20260903064240 24 341 3.2 3.2 0.00 0.00 0.00 91 1020.1
20260903063737 24 343 3.2 3.2 0.00 0.00 0.00 91 1020.2
20260903063231 25 335 3.2 4.8 0.00 0.00 0.00 91 1020.3
20260903062727 24 339 3.2 3.2 0.00 0.00 0.00 91 1020.2
20260903062226 25 341 3.2 3.2 0.00 0.00 0.00 91 1020.0
20260903061723 25 340 3.2 3.2 0.00 0.00 0.00 90 1020.1
20260903061221 25 341 1.6 3.2 0.00 0.00 0.00 90 1020.2
20260903060718 25 330 3.2 3.2 0.00 0.00 0.00 90 1020.3
20260903060217 25 342 3.2 3.2 0.00 0.00 0.00 90 1020.3
20260903055715 25 348 1.6 3.2 0.00 0.00 0.00 89 1020.3
20260903055214 25 336 3.2 3.2 0.00 0.00 0.00 89 1020.3
20260903054708 25 335 3.2 3.2 0.00 0.00 0.00 89 1020.3
20260903054204 25 342 3.2 3.2 0.00 0.00 0.00 89 1020.3
20260903053701 25 337 3.2 3.2 0.00 0.00 0.00 89 1020.3
20260903053155 25 338 3.2 3.2 0.00 0.00 0.00 88 1020.2
20260903052651 25 336 3.2 4.8 0.00 0.00 0.00 89 1020.2
20260903052147 25 327 3.2 3.2 0.00 0.00 0.00 88 1020.3
20260903051641 25 345 1.6 3.2 0.00 0.00 0.00 89 1020.4
20260903051137 25 352 1.6 3.2 0.00 0.00 0.00 88 1020.5
20260903050637 25 341 3.2 3.2 0.00 0.00 0.00 88 1020.3
20260903050126 25 341 3.2 4.8 0.00 0.00 0.00 88 1020.3
20260903045625 25 341 3.2 3.2 0.00 0.00 0.00 88 1020.3
20260903045122 25 336 3.2 4.8 0.00 0.00 0.00 88 1020.2
20260903044618 25 331 3.2 4.8 0.00 0.00 0.00 88 1020.4
20260903044113 25 336 3.2 3.2 0.00 0.00 0.00 88 1020.3
20260903043609 25 341 3.2 3.2 0.00 0.00 0.00 88 1020.3
20260903043109 25 337 3.2 4.8 0.00 0.00 0.00 87 1020.3
20260903042603 25 342 3.2 3.2 0.00 0.00 0.00 87 1020.4
20260903042059 25 358 3.2 3.2 0.00 0.00 0.00 87 1020.2
20260903041556 25 343 3.2 3.2 0.00 0.00 0.00 87 1020.2
20260903041055 25 333 3.2 3.2 0.00 0.00 0.00 87 1020.3
20260903040554 25 340 3.2 3.2 0.00 0.00 0.00 86 1020.3
20260903040051 25 335 3.2 3.2 0.00 0.00 0.00 86 1020.3
20260903035546 26 345 3.2 3.2 0.00 0.00 0.00 87 1020.4
20260903035042 26 343 3.2 4.8 0.00 0.00 0.00 86 1020.5
20260903034537 26 341 3.2 3.2 0.00 0.00 0.00 86 1020.4
20260903034032 26 341 3.2 3.2 0.00 0.00 0.00 86 1020.4
20260903033527 26 337 3.2 3.2 0.00 0.00 0.00 86 1020.3
20260903033022 26 342 1.6 4.8 0.00 0.00 0.00 86 1020.4
20260903032518 26 335 1.6 3.2 0.00 0.00 0.00 86 1020.4
20260903032013 26 324 3.2 3.2 0.00 0.00 0.00 85 1020.5
20260903031513 26 330 3.2 3.2 0.00 0.00 0.00 85 1020.5
20260903031008 26 341 3.2 3.2 0.00 0.00 0.00 85 1020.6
20260903030504 26 341 3.2 3.2 0.00 0.00 0.00 85 1020.4
20260903025959 26 339 3.2 3.2 0.00 0.00 0.00 84 1020.4
20260903025455 26 335 3.2 3.2 0.00 0.00 0.00 84 1020.5
20260903024950 26 338 3.2 3.2 0.00 0.00 0.00 84 1020.2
20260903024449 26 339 3.2 3.2 0.00 0.00 0.00 84 1020.3
20260903023944 26 334 3.2 3.2 0.00 0.00 0.00 83 1020.1
20260903023439 26 355 1.6 3.2 0.00 0.00 0.00 83 1020.2
20260903022935 26 336 3.2 3.2 0.00 0.00 0.00 83 1020.3
20260903022434 27 340 3.2 3.2 0.00 0.00 0.00 83 1020.2
20260903021932 26 346 3.2 4.8 0.00 0.00 0.00 82 1020.2
20260903021428 27 341 3.2 3.2 0.00 0.00 0.00 82 1020.2
20260903020922 27 338 1.6 4.8 0.00 0.00 0.00 82 1020.3
20260903020418 27 333 1.6 3.2 0.00 0.00 0.00 81 1020.2
20260903015912 27 340 3.2 3.2 0.00 0.00 0.00 80 1020.2
20260903015408 27 349 1.6 3.2 0.00 0.00 0.00 81 1020.2
20260903014903 27 345 3.2 3.2 0.00 0.00 0.00 80 1020.1
20260903014357 27 336 3.2 3.2 0.00 0.00 0.00 80 1020.3
20260903013853 27 343 3.2 3.2 0.00 0.00 0.00 80 1020.1
20260903013352 27 331 3.2 3.2 0.00 0.00 0.00 80 1020.0
20260903012851 27 341 3.2 3.2 0.00 0.00 0.00 80 1020.0
20260903012345 27 342 1.6 3.2 0.00 0.00 0.00 80 1020.0
20260903011844 27 332 1.6 3.2 0.00 0.00 0.00 79 1019.9
20260903011344 27 336 3.2 3.2 0.00 0.00 0.00 79 1019.7
20260903010839 28 343 3.2 3.2 0.00 0.00 0.00 78 1019.6
20260903010335 28 338 3.2 3.2 0.00 0.00 0.00 78 1019.5
20260903005833 28 340 3.2 3.2 0.00 0.00 0.00 77 1019.7
20260903005328 28 343 1.6 3.2 0.00 0.00 0.00 77 1019.6
20260903004824 28 347 3.2 4.8 0.00 0.00 0.00 77 1019.6
20260903004319 28 334 3.2 4.8 0.00 0.00 0.00 77 1019.5
20260903003815 28 337 3.2 3.2 0.00 0.00 0.00 76 1019.4
20260903003310 28 338 3.2 4.8 0.00 0.00 0.00 76 1019.5
20260903002809 28 336 3.2 3.2 0.00 0.00 0.00 75 1019.4
20260903002309 29 348 1.6 4.8 0.00 0.00 0.00 74 1019.5
20260903001804 29 339 3.2 3.2 0.00 0.00 0.00 75 1019.3
20260903001259 29 344 3.2 3.2 0.00 0.00 0.00 75 1019.3
20260903000754 30 346 1.6 3.2 0.00 0.00 0.00 75 1019.4
20260903000249 30 339 3.2 4.8 0.00 0.00 0.00 73 1019.3
20260902235747 30 341 3.2 3.2 0.00 0.00 0.00 73 1019.4
20260902235243 30 338 3.2 3.2 0.00 0.00 0.00 72 1019.3
20260902234742 30 341 3.2 3.2 0.00 0.00 0.00 72 1019.3
20260902234242 30 344 1.6 3.2 0.00 0.00 0.00 71 1019.3
20260902233742 31 344 1.6 3.2 0.00 0.00 0.00 71 1019.4
20260902233242 31 341 1.6 3.2 0.00 0.00 0.00 70 1019.4
20260902232740 31 339 1.6 3.2 0.00 0.00 0.00 69 1019.5
20260902232234 31 330 3.2 3.2 0.00 0.00 0.00 65 1019.3
20260902231728 32 337 1.6 3.2 0.00 0.00 0.00 62 1019.3
20260902231223 32 341 1.6 3.2 0.00 0.00 0.00 62 1019.2
20260902230718 32 336 3.2 3.2 0.00 0.00 0.00 61 1019.2
20260902230217 33 349 1.6 1.6 0.00 0.00 0.00 57 1019.4
20260902225713 34 348 1.6 1.6 0.00 0.00 0.00 55 1019.3
20260902225212 36 347 0.0 1.6 0.00 0.00 0.00 50 1019.3
20260902224711 36 152 0.0 1.6 0.00 0.00 0.00 51 1019.3
20260902224207 36 265 0.0 1.6 0.00 0.00 0.00 50 1019.4
20260902223703 36 342 0.0 1.6 0.00 0.00 0.00 50 1019.3
20260902223202 37 178 0.0 0.0 0.00 0.00 0.00 50 1019.6
20260902222701 36 331 0.0 1.6 0.00 0.00 0.00 52 1019.3
20260902222200 37 137 0.0 1.6 0.00 0.00 0.00 52 1019.5
20260902221655 37 212 0.0 0.0 0.00 0.00 0.00 50 1019.4
20260902221149 35 109 1.6 3.2 0.00 0.00 0.00 57 1019.6
20260902220645 35 136 1.6 1.6 0.00 0.00 0.00 54 1019.5
20260902220145 35 144 0.0 0.0 0.00 0.00 0.00 56 1019.6
20260902215641 35 113 1.6 1.6 0.00 0.00 0.00 61 1019.6
20260902215136 35 127 0.0 1.6 0.00 0.00 0.00 60 1019.6
20260902214631 35 112 1.6 1.6 0.00 0.00 0.00 56 1019.6
20260902214130 36 86 1.6 3.2 0.00 0.00 0.00 48 1019.5
20260902213625 37 123 1.6 1.6 0.00 0.00 0.00 54 1019.6
20260902213124 36 144 0.0 0.0 0.00 0.00 0.00 54 1019.6
20260902212620 36 154 0.0 1.6 0.00 0.00 0.00 48 1019.7
20260902212116 36 139 1.6 1.6 0.00 0.00 0.00 52 1019.7
20260902211612 35 113 1.6 3.2 0.00 0.00 0.00 51 1019.7
20260902211108 35 115 1.6 1.6 0.00 0.00 0.00 56 1019.5
20260902210607 35 119 1.6 3.2 0.00 0.00 0.00 55 1019.5
20260902210108 36 127 1.6 1.6 0.00 0.00 0.00 49 1019.8
20260902205606 37 150 0.0 0.0 0.00 0.00 0.00 48 1019.7
20260902205102 37 150 0.0 0.0 0.00 0.00 0.00 51 1019.8
20260902204557 37 135 0.0 0.0 0.00 0.00 0.00 49 1019.7
20260902204057 36 134 0.0 1.6 0.00 0.00 0.00 50 1019.9
20260902203553 35 120 1.6 1.6 0.00 0.00 0.00 54 1019.9
20260902203051 35 125 1.6 3.2 0.00 0.00 0.00 58 1019.9
20260902202548 36 142 0.0 1.6 0.00 0.00 0.00 50 1019.9
20260902202044 35 101 1.6 3.2 0.00 0.00 0.00 49 1020.0
20260902201539 35 110 1.6 1.6 0.00 0.00 0.00 52 1020.0
20260902201038 36 135 0.0 0.0 0.00 0.00 0.00 47 1020.2
20260902200534 35 122 1.6 1.6 0.00 0.00 0.00 48 1020.0
20260902200030 36 156 0.0 1.6 0.00 0.00 0.00 47 1020.2
20260902195526 35 156 1.6 3.2 0.00 0.00 0.00 53 1020.2
20260902195024 35 160 1.6 3.2 0.00 0.00 0.00 48 1020.4
20260902194524 35 136 0.0 1.6 0.00 0.00 0.00 54 1020.3
20260902194019 35 132 1.6 3.2 0.00 0.00 0.00 52 1020.3
20260902193515 35 121 1.6 3.2 0.00 0.00 0.00 57 1020.5
20260902193015 34 106 3.2 4.8 0.00 0.00 0.00 51 1020.7
20260902192513 35 142 0.0 1.6 0.00 0.00 0.00 54 1020.6
20260902192012 35 131 0.0 1.6 0.00 0.00 0.00 55 1020.9
20260902191508 34 144 1.6 1.6 0.00 0.00 0.00 55 1020.7
20260902191002 34 146 1.6 1.6 0.00 0.00 0.00 55 1020.8
20260902190458 33 125 1.6 1.6 0.00 0.00 0.00 55 1021.0
20260902185953 33 117 1.6 1.6 0.00 0.00 0.00 61 1021.0
20260902185449 33 116 3.2 4.8 0.00 0.00 0.00 55 1021.0
20260902184944 33 136 1.6 3.2 0.00 0.00 0.00 61 1021.1